Regional Weather Roundup
Issued by NWS

Home | Current Version | Previous Version | Graphics & Text | Print | Product List | Glossary On
Versions: 1 2 3 4 5 6 7 8 9 10 11 12 13 14 15 16 17 18 19 20 21 22 23 24 25 26 27 28 29 30 31 32 33 34 35 36 37 38 39 40 41 42 43 44 45 46 47 48 49 50
000
ASUS43 KLOT 270604
RWRIL

ILLINOIS REGIONAL WEATHER ROUNDUP
NATIONAL WEATHER SERVICE CHICAGO/ROMEOVILLE IL
100 AM CDT TUE JUN 27 2017

NOTE: "FAIR" INDICATES FEW OR NO CLOUDS BELOW 12,000 FEET WITH NO
SIGNIFICANT WEATHER AND/OR OBSTRUCTIONS TO VISIBILITY.

* THESE STATIONS ARE NOT UNDER NWS QUALITY CONTROL. THEY ALSO MAY NOT
  REPORT WEATHER SUCH AS PRECIPITATION OR FOG.

ILZ001-002-007-009-015-016-024-270700-
NORTHWEST ILLINOIS

CITY           SKY/WX    TMP DP  RH WIND       PRES   REMARKS
MOLINE         CLEAR     52  46  80 CALM      30.14R
6HR MIN TEMP:  51; 6HR MAX TEMP:  72;

STERLING*      CLEAR     52  49  89 CALM      30.13S
SAVANNA*       CLEAR     49  47  93 CALM      30.13S
$$

ILZ003-004-008-010-011-017-018-270700-
NORTH CENTRAL ILLINOIS

CITY           SKY/WX    TMP DP  RH WIND       PRES   REMARKS
ROCKFORD       CLEAR     52  47  83 S3        30.13R
6HR MIN TEMP:  51; 6HR MAX TEMP:  67;

FREEPORT*      CLEAR     48  44  87 W5        30.14S
ROCHELLE*      CLEAR     49  46  88 CALM      30.13S
DE KALB*       CLEAR     53  45  75 W6        30.13S
PERU*          CLEAR     55  45  67 CALM      30.13S
$$

ILZ005-006-012>014-019>023-270700-
NORTHEAST ILLINOIS

CITY           SKY/WX    TMP DP  RH WIND       PRES   REMARKS
CHICAGO-OHARE  CLEAR     57  45  64 NW7       30.10R
6HR MIN TEMP:  57; 6HR MAX TEMP:  68;

CHICAGO-MIDWAY CLEAR     58  46  64 NW7       30.10S
6HR MIN TEMP:  58; 6HR MAX TEMP:  68;

AURORA         CLEAR     50  46  86 W5        30.12S
6HR MIN TEMP:  50; 6HR MAX TEMP:  67;

LANSING*       CLEAR     55  44  64 W3        30.11S
JOLIET*        CLEAR     51  48  89 CALM      30.12S
WAUKEGAN       CLEAR     52  48  86 VRB3      30.09S
6HR MIN TEMP:  51; 6HR MAX TEMP:  63;

DUPAGE AIRPORT CLEAR     53  47  79 CALM      30.11R
6HR MIN TEMP:  53; 6HR MAX TEMP:  66;

WHEELING       CLEAR     53  47  79 NW5       30.11S
6HR MIN TEMP:  53; 6HR MAX TEMP:  65;

MORRIS*        CLEAR     53  45  72 W5        30.11S
ROMEOVILLE*    CLEAR     55  44  65 W3        30.11S
NORTHERLY ISL    N/A     61  45  55 W3          N/A
$$

LMZ740>746-270700-
SOUTHERN LAKE MICHIGAN

STATION/POSITION SKY/WX   TEMP    WIND        PRES    VSBY  WAVE
                          AIR SEA DIR/SP/G                  HT/PER
                          (F)     (DEG/KT/KT) (MB)    (MI)  (FT/S)
SOUTHERN BUOY              58 61  350/ 16/ 19 1018.1          3/ 5
WILMETTE HARBOR            60 63  310/ 10/ 12   N/A           2/ 4
HARRISON CRIB              62     310/ 11/ 12   N/A
BURNHAM HARBOR             61                   N/A
CALUMET HARBOR             60     280/  2/  4 1018.6S
BURNS HARBOR               63     320/ 14/ 18 1019.3R
MICHIGAN CITY              61     330/ 17/ 19   N/A
MICHIGAN CITY 6N           62 65  340/ 14/ 17   N/A           3/ 5
ST. JOSEPH                 61 68  360/ 16/ 21 1018.7R         4/ 5
$$

ILZ025>027-034>036-040-047-049-050-058-095>099-270700-
WEST-CENTRAL ILLINOIS

CITY           SKY/WX    TMP DP  RH WIND       PRES   REMARKS
QUINCY         CLEAR     59  57  93 CALM      30.13S
GALESBURG*     CLEAR     50  50 100 CALM      30.15S
MACOMB*        CLEAR     49  48  94 CALM      30.17S
JACKSONVILLE*  PTCLDY    55  52  89 E3        30.13S
PITTSFIELD*    CLEAR     59  55  86 NW3       30.14S
$$

ILZ028>032-037-038-041>044-048-051>054-059>061-270700-
CENTRAL ILLINOIS

CITY           SKY/WX    TMP DP  RH WIND       PRES   REMARKS
PONTIAC        CLEAR     55  52  92 CALM      30.14R
BLOOMINGTON    CLEAR     55  51  86 NW6       30.15
DECATUR        CLEAR     58  52  80 NW7       30.13S
PEORIA         CLEAR     54  52  93 CALM      30.14R
6HR MIN TEMP:  54; 6HR MAX TEMP:  67;

LACON*         CLEAR     50  48  95 CALM      30.13S
LINCOLN*       CLEAR     57  56  99 CALM      30.14S
SPRINGFIELD    MOCLDY    58  55  90 CALM      30.13F
6HR MIN TEMP:  57; 6HR MAX TEMP:  73;

TAYLORVILLE    PTCLDY    53  51  94 CALM      30.13S
6HR MIN TEMP:  53; 6HR MAX TEMP:  70;

$$

ILZ033-039-045-046-055>057-062-063-270700-
EAST-CENTRAL ILLINOIS

CITY           SKY/WX    TMP DP  RH WIND       PRES   REMARKS
CHAMPAIGN      CLEAR     53  49  86 NW5       30.13R
RANTOUL*       CLEAR     55  53  92 NW7       30.13R
MATTOON        MOCLDY    58  52  80 CALM      30.12S
PARIS*         CLEAR     52  50  92 W6        30.13R
$$

ILZ079-100>102-270700-
SOUTHWEST ILLINOIS

CITY           SKY/WX    TMP DP  RH WIND       PRES   REMARKS
ALTON          CLEAR     55  53  95 CALM      30.14R
BELLEVILLE     CLEAR     58  53  83 N3        30.14R
CAHOKIA*       CLEAR     56  52  86 CALM      30.13R
SPARTA*        CLEAR     60  52  75 CALM      30.14S
$$

ILZ064>066-069>071-074>076-080>082-084>086-088>090-092>094-270700-
SOUTH-CENTRAL ILLINOIS

CITY           SKY/WX    TMP DP  RH WIND       PRES   REMARKS
CARBONDALE     CLOUDY    61  59  93 NW3       30.13R
6HR MIN TEMP:  60; 6HR MAX TEMP:  71;

CAIRO*         CLOUDY    65  61  88 CALM      30.11S
EFFINGHAM*     CLEAR     55  54  99 CALM      30.14S
MARION         CLOUDY    61  61 100 CALM      30.13S
SALEM*         CLEAR     56  53  88 CALM      30.13S
METROPOLIS*    CLOUDY    64  59  86 CALM      30.11F
$$

ILZ067-068-072-073-078-083-087-091-270700-
SOUTHEAST ILLINOIS

CITY           SKY/WX    TMP DP  RH WIND       PRES   REMARKS
LAWRENCEVILLE  CLEAR     56  55  97 CALM      30.12F
FLORA*         CLEAR     56  52  88 CALM      30.13R
FAIRFIELD*     CLEAR     55  54  96 CALM      30.12S
HARRISBURG*    CLOUDY    60  56  87 CALM      30.12F
ROBINSON*      CLEAR     52  51  96 CALM      30.13F
CARMI*         CLOUDY    58  56  94 CALM      30.12R
$$

ABBREVIATIONS USED IN REMARKS
   TC - TEMPERATURE IN CELSIUS
  WCI - WIND CHILL INDEX
   HX - HEAT INDEX
  VSB - VISIBILITY
$$




USA.gov is the U.S. government's official web portal to all federal, state and local government web resources and services.